Tracking 27111 objects as of 29-Mar-2023
HD Live streaming from Space Station
objects crossing your sky now

BREEZE-M R/B

Track BREEZE-M R/B now!


NORAD ID: 26738
Int'l Code: 2001-014C
Perigee: 35,709.4 km
Apogee: 37,197.7 km
Inclination: 14.2 °
Period: 1,469.9 minutes
Semi major axis: 42824 km
RCS: 0.6845 m2 (medium)
Launch date: April 7, 2001
Source: Commonwealth of Independent States (former USSR) (CIS)
Launch site: TYURATAM MISSILE AND SPACE COMPLEX (TTMTR)

Note: This is a ROCKET BODY
Your satellite tracking list
Your tracking list is empty




NASA's NSSDC Master Catalog

Two Line Element Set (TLE):
1 26738U 01014C   23086.86481313 -.00000057  00000-0  00000-0 0  9998
2 26738  14.1891  23.1094 0173765 205.9526 328.7026  0.97963409 78627
Source of the keplerian elements: AFSPC